Date String (YYYY-MM-DD hh:mm:ss) UTC,Instrument flags,Ambient pressure (hPa),Sample flow (lpm),Bypass flow (lpm),Sample temperature (°C),Ambient temperature (°C),ASC tube jacket temperature (°C),LED temperature (°C),Box temperature (°C),Sample RH (%),Span deviation,Mass concentration (μg/m³),Mass concentration (μg/m³),Mass concentration (μg/m³)
DateTimeUTC,F1_M11,P_M11,Q1_M11,Q2_M11,T1_M11,T2_M11,T3_M11,T4_M11,T5_M11,U1_M11,ZSPAN_M11,X0_M11,X2_M11,X1_M11
2022-12-06 02:00:00,,0818.0,5.00,0.00,23.0,21.1,00.0,32.1,24.8,17.7,0000.0,0010.17,0004.29,0003.46
2022-12-06 02:01:00,,0818.0,5.00,0.00,23.0,21.1,00.0,32.1,24.7,17.7,0000.0,0010.61,0004.25,0003.44
2022-12-06 02:02:00,,0818.0,5.00,0.00,23.0,21.1,00.0,32.1,24.7,17.8,0000.0,0011.21,0004.27,0003.43
2022-12-06 02:03:00,,0818.0,5.00,0.00,23.0,21.1,00.0,32.1,24.7,17.8,0000.0,0012.28,0004.28,0003.43
2022-12-06 02:04:00,,0817.9,4.98,0.00,23.0,21.1,00.0,32.1,24.7,17.7,0000.0,0012.51,0004.27,0003.43
2022-12-06 02:05:00,,0818.0,5.02,0.00,22.9,21.1,00.0,32.0,24.7,17.7,0000.0,0013.35,0004.26,0003.44
2022-12-06 02:06:00,,0818.0,5.00,0.00,22.9,21.1,00.0,32.0,24.7,17.8,0000.0,0013.19,0004.26,0003.45
2022-12-06 02:07:00,,0817.9,4.99,0.00,22.9,21.0,00.0,32.0,24.7,17.8,0000.0,0013.11,0004.24,0003.45
2022-12-06 02:08:00,,0818.0,5.00,0.00,22.9,21.0,00.0,32.0,24.6,17.7,0000.0,0013.12,0004.25,0003.46
2022-12-06 02:09:00,,0818.0,5.01,0.00,22.9,21.0,00.0,32.0,24.6,17.7,0000.0,0012.73,0004.26,0003.48
2022-12-06 02:10:00,,0817.9,5.00,0.00,22.8,20.9,00.0,32.0,24.6,17.8,0000.0,0012.81,0004.27,0003.48
2022-12-06 02:11:00,,0817.9,5.00,0.00,22.8,20.9,00.0,32.0,24.6,17.7,0000.0,0012.90,0004.31,0003.48
2022-12-06 02:12:00,,0817.9,5.00,0.00,22.8,20.9,00.0,31.9,24.5,17.8,0000.0,0012.65,0004.32,0003.48
2022-12-06 02:13:00,,0817.9,5.02,0.00,22.8,20.9,00.0,31.9,24.5,17.8,0000.0,0012.20,0004.24,0003.46
2022-12-06 02:14:00,,0817.9,4.98,0.00,22.8,20.8,00.0,31.9,24.5,17.7,0000.0,0011.80,0004.15,0003.44
2022-12-06 02:15:00,,0817.9,5.02,0.00,22.8,20.7,00.0,31.9,24.5,17.7,0000.0,0012.20,0004.13,0003.42
2022-12-06 02:16:00,,0817.9,4.98,0.00,22.7,20.8,00.0,31.9,24.5,17.8,0000.0,0011.70,0004.12,0003.41
2022-12-06 02:17:00,,0817.9,5.01,0.00,22.7,20.8,00.0,31.8,24.4,17.7,0000.0,0011.49,0004.11,0003.40
2022-12-06 02:18:00,,0817.9,5.00,0.00,22.7,20.7,00.0,31.8,24.4,17.6,0000.0,0011.13,0004.07,0003.38
2022-12-06 02:19:00,,0817.9,5.02,0.00,22.7,20.7,00.0,31.8,24.4,17.6,0000.0,0011.24,0004.03,0003.35
2022-12-06 02:20:00,,0817.9,4.99,0.00,22.7,20.8,00.0,31.8,24.4,17.7,0000.0,0011.34,0003.97,0003.32
2022-12-06 02:21:00,,0817.9,4.98,0.00,22.7,20.8,00.0,31.8,24.4,17.7,0000.0,0011.31,0003.94,0003.29
2022-12-06 02:22:00,,0818.0,5.02,0.00,22.6,20.7,00.0,31.8,24.4,17.8,0000.0,0011.28,0003.88,0003.27
2022-12-06 02:23:00,,0817.9,4.99,0.00,22.6,20.7,00.0,31.7,24.3,17.7,0000.0,0011.68,0003.80,0003.25
2022-12-06 02:24:00,,0818.0,4.99,0.00,22.6,20.6,00.0,31.7,24.3,17.7,0000.0,0011.94,0003.79,0003.23
2022-12-06 02:25:00,,0818.0,5.00,0.00,22.6,20.6,00.0,31.7,24.3,17.8,0000.0,0011.54,0003.75,0003.21
2022-12-06 02:26:00,,0818.0,5.01,0.00,22.5,20.6,00.0,31.7,24.2,17.7,0000.0,0010.96,0003.70,0003.18
2022-12-06 02:27:00,,0818.0,5.01,0.00,22.5,20.5,00.0,31.7,24.2,17.8,0000.0,0010.41,0003.67,0003.15
2022-12-06 02:28:00,,0818.0,5.00,0.00,22.5,20.6,00.0,31.7,24.2,17.7,0000.0,0009.81,0003.62,0003.11
2022-12-06 02:29:00,,0818.0,4.98,0.00,22.5,20.5,00.0,31.6,24.2,17.7,0000.0,0010.00,0003.61,0003.10
2022-12-06 02:30:00,,0818.1,5.01,0.00,22.5,20.5,00.0,31.6,24.2,17.7,0000.0,0010.41,0003.57,0003.06
2022-12-06 02:31:00,,0818.2,5.01,0.00,22.4,20.5,00.0,31.6,24.1,17.6,0000.0,0011.50,0003.58,0003.04
2022-12-06 02:32:00,,0818.0,4.99,0.00,22.4,20.5,00.0,31.6,24.0,17.8,0000.0,0011.40,0003.56,0003.02
2022-12-06 02:33:00,,0817.9,4.99,0.00,22.4,20.5,00.0,31.5,24.0,17.8,0000.0,0011.61,0003.57,0002.99
2022-12-06 02:34:00,,0817.8,4.99,0.00,22.3,20.4,00.0,31.5,24.0,17.7,0000.0,0011.54,0003.58,0002.97
2022-12-06 02:35:00,,0817.8,5.02,0.00,22.3,20.4,00.0,31.5,24.0,17.7,0000.0,0011.50,0003.57,0002.96
2022-12-06 02:36:00,,0818.1,4.99,0.00,22.3,20.4,00.0,31.5,24.1,17.8,0000.0,0011.15,0003.59,0002.96
2022-12-06 02:37:00,,0818.3,4.99,0.00,22.3,20.4,00.0,31.5,24.0,17.8,0000.0,0010.93,0003.59,0002.97
2022-12-06 02:38:00,,0818.4,5.02,0.00,22.3,20.4,00.0,31.4,24.0,17.9,0000.0,0011.12,0003.57,0002.97
2022-12-06 02:39:00,,0818.2,4.99,0.00,22.2,20.3,00.0,31.4,23.9,17.8,0000.0,0011.59,0003.58,0002.98
2022-12-06 02:40:00,,0818.0,5.00,0.00,22.2,20.3,00.0,31.4,23.9,17.9,0000.0,0011.58,0003.59,0002.99
2022-12-06 02:41:00,,0818.0,5.01,0.00,22.2,20.3,00.0,31.4,23.9,17.9,0000.0,0011.05,0003.61,0002.98
2022-12-06 02:42:00,,0818.0,5.00,0.00,22.2,20.2,00.0,31.3,23.9,17.9,0000.0,0009.52,0003.57,0002.97
2022-12-06 02:43:00,,0817.9,5.00,0.00,22.2,20.2,00.0,31.3,23.9,18.0,0000.0,0009.18,0003.55,0002.97
2022-12-06 02:44:00,,0817.9,5.00,0.00,22.1,20.2,00.0,31.3,23.9,17.9,0000.0,0009.22,0003.58,0002.97
2022-12-06 02:45:00,,0818.0,5.00,0.00,22.1,20.1,00.0,31.3,23.8,17.9,0000.0,0008.64,0003.59,0002.99
2022-12-06 02:46:00,,0818.0,5.00,0.00,22.1,20.2,00.0,31.3,23.8,18.0,0000.0,0008.04,0003.61,0002.99
2022-12-06 02:47:00,,0818.0,5.00,0.00,22.1,20.2,00.0,31.3,23.8,18.0,0000.0,0008.05,0003.66,0003.03
2022-12-06 02:48:00,,0818.1,5.00,0.00,22.1,20.2,00.0,31.2,23.8,18.0,0000.0,0008.83,0003.71,0003.10
2022-12-06 02:49:00,,0818.1,5.00,0.00,22.1,20.2,00.0,31.2,23.8,18.0,0000.0,0009.14,0003.75,0003.13
2022-12-06 02:50:00,,0818.1,5.00,0.00,22.1,20.2,00.0,31.2,23.8,18.0,0000.0,0009.00,0003.75,0003.16
2022-12-06 02:51:00,,0818.0,4.99,0.00,22.0,20.1,00.0,31.2,23.8,18.1,0000.0,0009.50,0003.74,0003.17
2022-12-06 02:52:00,,0818.1,5.01,0.00,22.0,20.2,00.0,31.2,23.8,18.0,0000.0,0009.46,0003.72,0003.19
2022-12-06 02:53:00,,0818.1,5.01,0.00,22.0,20.1,00.0,31.2,23.7,18.0,0000.0,0009.75,0003.76,0003.20
2022-12-06 02:54:00,,0818.2,5.00,0.00,22.0,20.2,00.0,31.2,23.7,18.1,0000.0,0010.34,0003.77,0003.20
2022-12-06 02:55:00,,0818.2,4.99,0.00,22.0,20.2,00.0,31.1,23.7,18.1,0000.0,0010.31,0003.76,0003.21
2022-12-06 02:56:00,,0818.3,5.00,0.00,22.0,20.2,00.0,31.1,23.8,18.1,0000.0,0010.63,0003.77,0003.21
2022-12-06 02:57:00,,0818.4,5.01,0.00,22.0,20.3,00.0,31.1,23.8,18.1,0000.0,0010.98,0003.74,0003.21
2022-12-06 02:58:00,,0818.4,5.01,0.00,22.0,20.3,00.0,31.1,23.8,18.1,0000.0,0010.90,0003.71,0003.18
2022-12-06 02:59:00,,0818.4,4.99,0.00,22.0,20.4,00.0,31.1,23.8,18.1,0000.0,0010.15,0003.66,0003.13
